Location: Robert Brownlee Observatory
(34.2308°N, 117.2089°W)
Time: 07:10:46
(UTC-07:00)

Cosmos 1943 - Visible Passes

Search period start: 31 May 2016 00:00
Search period end: 10 June 2016 00:00
Orbit: 832 x 852 km, 71.0° (Epoch: 31 May)

Date Brightness Start Highest point End Pass type
(mag) Time Alt. Az. Time Alt. Az. Time Alt. Az.
31 May 3.5 20:31:34 10° S 20:36:54 45° ESE 20:42:17 10° NE visible
31 May 5.6 22:16:47 10° WSW 22:21:07 22° WNW 22:25:30 10° N visible
01 Jun 3.6 20:16:40 10° S 20:21:57 42° ESE 20:27:17 10° NE visible
01 Jun 5.5 22:01:41 10° WSW 22:06:08 23° WNW 22:10:38 10° N visible
02 Jun 5.5 21:46:35 10° WSW 21:51:09 25° WNW 21:55:45 10° N visible
03 Jun 6.9 05:02:33 10° NE 05:03:50 11° NE 05:05:08 10° ENE visible
03 Jun 5.5 21:31:30 10° WSW 21:36:10 26° WNW 21:40:52 10° N visible
04 Jun 7.0 04:48:28 10° NE 04:48:49 10° NE 04:49:10 10° NE visible
04 Jun 5.5 21:16:24 10° WSW 21:21:10 27° WNW 21:25:59 10° N visible
05 Jun 5.4 21:01:20 10° WSW 21:06:12 29° WNW 21:11:06 10° N visible
06 Jun 5.4 20:46:17 10° WSW 20:51:13 30° WNW 20:56:11 10° N visible
07 Jun 5.4 20:31:13 10° SW 20:36:14 32° WNW 20:41:18 10° N visible
